Weather in Krasnaya Polyana

Russia / Republic of Crimea     45°28′55″N   32°56′09″E
temp.,
°C
wind,
m/s
gust,
m/s
humid.,
%
clouds,
%
prec.,
mm/h
press.,
hPa
HPBL,
m
3 march, wed
wed300:00+4wsw7138429 0.0 1024444
03:00+4nnw7128841 0.0 1024456
06:00+3nnw7107677 0.0 1024893
09:00+4n7107172 0.0 1026929
12:00+6nnw68630 0.0 1027806
15:00+7nnw67550 0.0 10281000
18:00+6wnw57650 0.0 1027400
21:00+4wnw46781 0.0 1029134
4 march, thu
thu400:00+4w347764 0.0 102856
03:00+3wsw348353 0.0 102855
06:00+2sw34860 0.0 102577
09:00+5sw58750 0.0 1025634
12:00+8sw79620 0.0 1023795
15:00+8sw810650 0.0 1021769
18:00+6ssw812720 0.0 1019648
21:00+5ssw813770 0.0 1019521
5 march, fri
fri500:00+5ssw914810 0.0 1017509
03:00+6ssw814830 0.0 1016496
06:00+6ssw8138617 0.0 1015447
09:00+7ssw9138016 0.0 1014538
12:00+10ssw1014702 0.0 1013643
15:00+11ssw913717 0.0 1011612
18:00+9sw712792 0.0 1010509
21:00+7ssw6109033 0.0 1012265
6 march, sat
sat600:00+6sw349051 0.0 101389
03:00+5nnw338344 0.0 101447
06:00+3nne7118971 0.0 1015393
09:00+3nne698885 0.0 1017425
12:00+3nne7876100 0.0 1019705
15:00+5n7855100 0.0 10201032
18:00+4n6746100 0.0 10211387
21:00+2n594499 0.0 1024303
7 march, sun
sun700:00+1n610600 0.0 1026340
03:00−1n35500 0.0 1027126
06:00−1nw12430 0.0 102734
09:00+2w364214 0.0 10281049
12:00+4wnw684559 0.0 10271663
15:00+5w784431 0.0 10251526
18:00+3w58530 0.0 10231223
21:00+1sw48620 0.0 1022234